# Tabular Observed and Forecast Hydrograph Information
#
# Location: Merced River - Yosemite NP at Happy Isles (HPIC1)
#
# File Generation Time: 08/31/2026 at 07:52 AM PDT
# Data Interval: 1 Hour
#
# Most Recent Date & Time of Maximum Observed: 08/31/2026 at 07:00 AM PDT
# Maximum Observed Stage: 1.29 Feet
# Maximum Observed Flow: 30 cfs
#
# Earliest Date & Time of Maximum Forecast: 08/31/2026 at 08:00 AM PDT
# Maximum Forecast Stage: 1.29 Feet
# Maximum Forecast Flow: 30 cfs
#
# OBSERVED
#
# Date & Time (Local) Stage (Feet) Flow (cfs) Trend Observed Status
# ---------------------------------------------------------------------------------
08/26/2026 07 AM PDT 0.94 13 Normal
08/26/2026 08 AM PDT 0.94 13 0 Normal
08/26/2026 09 AM PDT 0.94 13 0 Normal
08/26/2026 10 AM PDT 0.93 13 - Normal
08/26/2026 11 AM PDT 0.94 13 + Normal
08/26/2026 12 PM PDT 0.93 13 - Normal
08/26/2026 01 PM PDT 0.93 13 0 Normal
08/26/2026 02 PM PDT 0.93 13 0 Normal
08/26/2026 03 PM PDT 0.93 13 0 Normal
08/26/2026 04 PM PDT 0.93 13 0 Normal
08/26/2026 05 PM PDT 0.92 12 - Normal
08/26/2026 06 PM PDT 0.92 12 0 Normal
08/26/2026 07 PM PDT 0.92 12 0 Normal
08/26/2026 08 PM PDT 0.92 12 0 Normal
08/26/2026 09 PM PDT 0.92 12 0 Normal
08/26/2026 10 PM PDT 0.92 12 0 Normal
08/26/2026 11 PM PDT 0.92 12 0 Normal
08/27/2026 12 AM PDT 0.92 12 0 Normal
08/27/2026 01 AM PDT 0.92 12 0 Normal
08/27/2026 02 AM PDT 0.92 12 0 Normal
08/27/2026 03 AM PDT 0.92 12 0 Normal
08/27/2026 04 AM PDT 0.92 12 0 Normal
08/27/2026 05 AM PDT 0.92 12 0 Normal
08/27/2026 06 AM PDT 0.91 12 - Normal
08/27/2026 07 AM PDT 0.91 12 0 Normal
08/27/2026 08 AM PDT 0.91 12 0 Normal
08/27/2026 09 AM PDT 0.91 12 0 Normal
08/27/2026 10 AM PDT 0.91 12 0 Normal
08/27/2026 11 AM PDT 0.91 12 0 Normal
08/27/2026 12 PM PDT 0.91 12 0 Normal
08/27/2026 01 PM PDT 0.91 12 0 Normal
08/27/2026 02 PM PDT 0.91 12 0 Normal
08/27/2026 03 PM PDT 0.91 12 0 Normal
08/27/2026 04 PM PDT 0.91 12 0 Normal
08/27/2026 05 PM PDT 0.91 12 0 Normal
08/27/2026 06 PM PDT 0.90 12 - Normal
08/27/2026 07 PM PDT 0.91 12 + Normal
08/27/2026 08 PM PDT 0.91 12 0 Normal
08/27/2026 09 PM PDT 0.91 12 0 Normal
08/27/2026 10 PM PDT 0.91 12 0 Normal
08/27/2026 11 PM PDT 0.91 12 0 Normal
08/28/2026 12 AM PDT 0.91 12 0 Normal
08/28/2026 01 AM PDT 0.91 12 0 Normal
08/28/2026 02 AM PDT 0.91 12 0 Normal
08/28/2026 03 AM PDT 0.91 12 0 Normal
08/28/2026 04 AM PDT 0.91 12 0 Normal
08/28/2026 05 AM PDT 0.91 12 0 Normal
08/28/2026 06 AM PDT 0.91 12 0 Normal
08/28/2026 07 AM PDT 0.91 12 0 Normal
08/28/2026 08 AM PDT 0.91 12 0 Normal
08/28/2026 09 AM PDT 0.91 12 0 Normal
08/28/2026 10 AM PDT 0.91 12 0 Normal
08/28/2026 11 AM PDT 0.91 12 0 Normal
08/28/2026 12 PM PDT 0.91 12 0 Normal
08/28/2026 01 PM PDT 0.91 12 0 Normal
08/28/2026 02 PM PDT 0.91 12 0 Normal
08/28/2026 03 PM PDT 0.91 12 0 Normal
08/28/2026 04 PM PDT 0.92 12 + Normal
08/28/2026 05 PM PDT 0.93 13 + Normal
08/28/2026 06 PM PDT 0.93 13 0 Normal
08/28/2026 07 PM PDT 0.94 13 + Normal
08/28/2026 08 PM PDT 0.94 13 0 Normal
08/28/2026 09 PM PDT 0.94 13 0 Normal
08/28/2026 10 PM PDT 0.94 13 0 Normal
08/28/2026 11 PM PDT 0.94 13 0 Normal
08/29/2026 12 AM PDT 0.94 13 0 Normal
08/29/2026 01 AM PDT 0.94 13 0 Normal
08/29/2026 02 AM PDT 0.94 13 0 Normal
08/29/2026 03 AM PDT 0.94 13 0 Normal
08/29/2026 04 AM PDT 0.95 13 + Normal
08/29/2026 05 AM PDT 0.95 13 0 Normal
08/29/2026 06 AM PDT 0.96 14 + Normal
08/29/2026 07 AM PDT 0.97 14 + Normal
08/29/2026 08 AM PDT 0.98 14 + Normal
08/29/2026 09 AM PDT 0.98 14 0 Normal
08/29/2026 10 AM PDT 0.99 15 + Normal
08/29/2026 11 AM PDT 0.99 15 0 Normal
08/29/2026 12 PM PDT 0.99 15 0 Normal
08/29/2026 01 PM PDT 0.99 15 0 Normal
08/29/2026 02 PM PDT 0.99 15 0 Normal
08/29/2026 03 PM PDT 0.99 15 0 Normal
08/29/2026 04 PM PDT 1.00 15 + Normal
08/29/2026 05 PM PDT 1.00 15 0 Normal
08/29/2026 06 PM PDT 1.00 15 0 Normal
08/29/2026 07 PM PDT 1.01 16 + Normal
08/29/2026 08 PM PDT 1.02 16 + Normal
08/29/2026 09 PM PDT 1.02 16 0 Normal
08/29/2026 10 PM PDT 1.03 16 + Normal
08/29/2026 11 PM PDT 1.04 17 + Normal
08/30/2026 12 AM PDT 1.05 17 + Normal
08/30/2026 01 AM PDT 1.06 18 + Normal
08/30/2026 02 AM PDT 1.07 18 + Normal
08/30/2026 03 AM PDT 1.08 19 + Normal
08/30/2026 04 AM PDT 1.09 19 + Normal
08/30/2026 05 AM PDT 1.11 20 + Normal
08/30/2026 06 AM PDT 1.12 21 + Normal
08/30/2026 07 AM PDT 1.14 22 + Normal
08/30/2026 08 AM PDT 1.15 22 + Normal
08/30/2026 09 AM PDT 1.17 23 + Normal
08/30/2026 10 AM PDT 1.18 24 + Normal
08/30/2026 11 AM PDT 1.19 24 + Normal
08/30/2026 12 PM PDT 1.20 25 + Normal
08/30/2026 01 PM PDT 1.21 25 + Normal
08/30/2026 02 PM PDT 1.22 26 + Normal
08/30/2026 03 PM PDT 1.23 26 + Normal
08/30/2026 04 PM PDT 1.24 27 + Normal
08/30/2026 05 PM PDT 1.24 27 0 Normal
08/30/2026 06 PM PDT 1.25 28 + Normal
08/30/2026 07 PM PDT 1.25 28 0 Normal
08/30/2026 08 PM PDT 1.26 28 + Normal
08/30/2026 09 PM PDT 1.27 29 + Normal
08/30/2026 10 PM PDT 1.27 29 0 Normal
08/30/2026 11 PM PDT 1.27 29 0 Normal
08/31/2026 12 AM PDT 1.28 29 + Normal
08/31/2026 01 AM PDT 1.28 29 0 Normal
08/31/2026 02 AM PDT 1.29 30 + Normal
08/31/2026 03 AM PDT 1.29 30 0 Normal
08/31/2026 04 AM PDT 1.29 30 0 Normal
08/31/2026 05 AM PDT 1.29 30 0 Normal
08/31/2026 06 AM PDT 1.29 30 0 Normal
08/31/2026 07 AM PDT 1.29 30 0 Normal
#
# FORECAST
#
# Date & Time (Local) Stage (Feet) Flow (cfs) Trend Forecast Status
# ---------------------------------------------------------------------------------
08/31/2026 08 AM PDT 1.29 30 Normal
08/31/2026 09 AM PDT 1.29 30 0 Normal
08/31/2026 10 AM PDT 1.29 30 0 Normal
08/31/2026 11 AM PDT 1.29 30 0 Normal
08/31/2026 12 PM PDT 1.28 29 - Normal
08/31/2026 01 PM PDT 1.28 29 0 Normal
08/31/2026 02 PM PDT 1.28 29 0 Normal
08/31/2026 03 PM PDT 1.28 29 0 Normal
08/31/2026 04 PM PDT 1.28 29 0 Normal
08/31/2026 05 PM PDT 1.28 29 0 Normal
08/31/2026 06 PM PDT 1.28 29 0 Normal
08/31/2026 07 PM PDT 1.28 29 0 Normal
08/31/2026 08 PM PDT 1.28 29 0 Normal
08/31/2026 09 PM PDT 1.28 29 0 Normal
08/31/2026 10 PM PDT 1.28 29 0 Normal
08/31/2026 11 PM PDT 1.28 29 0 Normal
09/01/2026 12 AM PDT 1.28 29 0 Normal
09/01/2026 01 AM PDT 1.28 29 0 Normal
09/01/2026 02 AM PDT 1.28 29 0 Normal
09/01/2026 03 AM PDT 1.28 29 0 Normal
09/01/2026 04 AM PDT 1.27 29 - Normal
09/01/2026 05 AM PDT 1.27 29 0 Normal
09/01/2026 06 AM PDT 1.27 29 0 Normal
09/01/2026 07 AM PDT 1.27 29 0 Normal
09/01/2026 08 AM PDT 1.27 29 0 Normal
09/01/2026 09 AM PDT 1.27 29 0 Normal
09/01/2026 10 AM PDT 1.27 29 0 Normal
09/01/2026 11 AM PDT 1.27 29 0 Normal
09/01/2026 12 PM PDT 1.27 29 0 Normal
09/01/2026 01 PM PDT 1.27 29 0 Normal
09/01/2026 02 PM PDT 1.27 29 0 Normal
09/01/2026 03 PM PDT 1.27 29 0 Normal
09/01/2026 04 PM PDT 1.27 29 0 Normal
09/01/2026 05 PM PDT 1.27 29 0 Normal
09/01/2026 06 PM PDT 1.27 29 0 Normal
09/01/2026 07 PM PDT 1.27 29 0 Normal
09/01/2026 08 PM PDT 1.26 28 - Normal
09/01/2026 09 PM PDT 1.26 28 0 Normal
09/01/2026 10 PM PDT 1.26 28 0 Normal
09/01/2026 11 PM PDT 1.26 28 0 Normal
09/02/2026 12 AM PDT 1.26 28 0 Normal
09/02/2026 01 AM PDT 1.26 28 0 Normal
09/02/2026 02 AM PDT 1.26 28 0 Normal
09/02/2026 03 AM PDT 1.26 28 0 Normal
09/02/2026 04 AM PDT 1.26 28 0 Normal
09/02/2026 05 AM PDT 1.26 28 0 Normal
09/02/2026 06 AM PDT 1.26 28 0 Normal
09/02/2026 07 AM PDT 1.26 28 0 Normal
09/02/2026 08 AM PDT 1.26 28 0 Normal
09/02/2026 09 AM PDT 1.26 28 0 Normal
09/02/2026 10 AM PDT 1.26 28 0 Normal
09/02/2026 11 AM PDT 1.25 28 - Normal
09/02/2026 12 PM PDT 1.25 28 0 Normal
09/02/2026 01 PM PDT 1.25 28 0 Normal
09/02/2026 02 PM PDT 1.25 28 0 Normal
09/02/2026 03 PM PDT 1.25 28 0 Normal
09/02/2026 04 PM PDT 1.25 28 0 Normal
09/02/2026 05 PM PDT 1.25 28 0 Normal
09/02/2026 06 PM PDT 1.25 28 0 Normal
09/02/2026 07 PM PDT 1.25 28 0 Normal
09/02/2026 08 PM PDT 1.25 28 0 Normal
09/02/2026 09 PM PDT 1.25 28 0 Normal
09/02/2026 10 PM PDT 1.25 28 0 Normal
09/02/2026 11 PM PDT 1.25 28 0 Normal
09/03/2026 12 AM PDT 1.25 28 0 Normal
09/03/2026 01 AM PDT 1.25 28 0 Normal
09/03/2026 02 AM PDT 1.25 28 0 Normal
09/03/2026 03 AM PDT 1.25 28 0 Normal
09/03/2026 04 AM PDT 1.25 28 0 Normal
09/03/2026 05 AM PDT 1.24 27 - Normal
09/03/2026 06 AM PDT 1.24 27 0 Normal
09/03/2026 07 AM PDT 1.24 27 0 Normal
09/03/2026 08 AM PDT 1.24 27 0 Normal
09/03/2026 09 AM PDT 1.24 27 0 Normal
09/03/2026 10 AM PDT 1.24 27 0 Normal
09/03/2026 11 AM PDT 1.24 27 0 Normal
09/03/2026 12 PM PDT 1.24 27 0 Normal
09/03/2026 01 PM PDT 1.24 27 0 Normal
09/03/2026 02 PM PDT 1.24 27 0 Normal
09/03/2026 03 PM PDT 1.24 27 0 Normal
09/03/2026 04 PM PDT 1.24 27 0 Normal
09/03/2026 05 PM PDT 1.24 27 0 Normal
09/03/2026 06 PM PDT 1.24 27 0 Normal
09/03/2026 07 PM PDT 1.24 27 0 Normal
09/03/2026 08 PM PDT 1.24 27 0 Normal
09/03/2026 09 PM PDT 1.23 26 - Normal
09/03/2026 10 PM PDT 1.23 26 0 Normal
09/03/2026 11 PM PDT 1.23 26 0 Normal
09/04/2026 12 AM PDT 1.23 26 0 Normal
09/04/2026 01 AM PDT 1.23 26 0 Normal
09/04/2026 02 AM PDT 1.23 26 0 Normal
09/04/2026 03 AM PDT 1.23 26 0 Normal
09/04/2026 04 AM PDT 1.23 26 0 Normal
09/04/2026 05 AM PDT 1.23 26 0 Normal
09/04/2026 06 AM PDT 1.23 26 0 Normal
09/04/2026 07 AM PDT 1.23 26 0 Normal
09/04/2026 08 AM PDT 1.23 26 0 Normal
09/04/2026 09 AM PDT 1.23 26 0 Normal
09/04/2026 10 AM PDT 1.23 26 0 Normal
09/04/2026 11 AM PDT 1.23 26 0 Normal
09/04/2026 12 PM PDT 1.23 26 0 Normal
09/04/2026 01 PM PDT 1.22 26 - Normal
09/04/2026 02 PM PDT 1.22 26 0 Normal
09/04/2026 03 PM PDT 1.22 26 0 Normal
09/04/2026 04 PM PDT 1.22 26 0 Normal
09/04/2026 05 PM PDT 1.22 26 0 Normal
09/04/2026 06 PM PDT 1.22 26 0 Normal
09/04/2026 07 PM PDT 1.22 26 0 Normal
09/04/2026 08 PM PDT 1.22 26 0 Normal
09/04/2026 09 PM PDT 1.22 26 0 Normal
09/04/2026 10 PM PDT 1.22 26 0 Normal
09/04/2026 11 PM PDT 1.22 26 0 Normal
09/05/2026 12 AM PDT 1.22 26 0 Normal
09/05/2026 01 AM PDT 1.22 26 0 Normal
09/05/2026 02 AM PDT 1.22 26 0 Normal
09/05/2026 03 AM PDT 1.22 26 0 Normal
09/05/2026 04 AM PDT 1.21 25 - Normal
09/05/2026 05 AM PDT 1.21 25 0 Normal
#
# NOTE 1: Stages are rounded to the nearest hundredth (.01) of a foot.
# NOTE 2: Flows are rounded to the nearest (1) cfs.
# NOTE 3: Trends are determined using hourly change in unrounded stage and flow.
# NOTE 4: Maximum Values are determined using unrounded stage and flow.
|